LKMT Weather Reports


Display with metric or nautical units.
time (UTC)temp
F
wind
direction
speed
MPH
gust
MPH
rain 1hr
in
rain 24hr
in
rain mn
in
humidity
%
barometer
mb
20260904223224 72 230 13.0 0.0 0.00 0.00 0.00 53 1011.0
20260904222649 75 230 14.0 0.0 0.00 0.00 0.00 47
20260904220233 72 230 13.0 0.0 0.00 0.00 0.00 56 1011.0
20260904213224 73 220 12.0 0.0 0.00 0.00 0.00 49 1010.0
20260904212233 75 220 12.0 0.0 0.00 0.00 0.00 47
20260904210233 75 220 13.0 0.0 0.00 0.00 0.00 47 1010.0
20260904203223 75 190 8.0 0.0 0.00 0.00 0.00 47 1011.0
20260904202231 77 180 9.0 0.0 0.00 0.00 0.00 47
20260904200236 75 170 7.0 0.0 0.00 0.00 0.00 50 1011.0
20260904193224 77 190 6.0 0.0 0.00 0.00 0.00 44 1011.0
20260904192531 79 210 12.0 0.0 0.00 0.00 0.00 41
20260904190236 79 220 12.0 0.0 0.00 0.00 0.00 44 1011.0
20260904183230 79 210 15.0 0.0 0.00 0.00 0.00 41 1011.0
20260904182249 81 210 18.0 0.0 0.00 0.00 0.00 39
20260904180234 81 210 17.0 0.0 0.00 0.00 0.00 39 1010.0
20260904173231 81 210 18.0 0.0 0.00 0.00 0.00 39 1010.0
20260904172250 82 220 18.0 0.0 0.00 0.00 0.00 39
20260904170234 81 220 16.0 0.0 0.00 0.00 0.00 42 1010.0
20260904163231 82 220 17.0 0.0 0.00 0.00 0.00 42 1011.0
20260904162535 82 230 18.0 0.0 0.00 0.00 0.00 39
20260904160234 82 230 18.0 0.0 0.00 0.00 0.00 39 1011.0
20260904153231 82 220 17.0 0.0 0.00 0.00 0.00 42 1012.0
20260904152309 82 220 18.0 0.0 0.00 0.00 0.00 42
20260904150233 81 220 17.0 0.0 0.00 0.00 0.00 44 1012.0
20260904143231 81 220 20.0 0.0 0.00 0.00 0.00 42 1012.0
20260904142247 81 220 20.0 0.0 0.00 0.00 0.00 42
20260904140234 81 220 20.0 0.0 0.00 0.00 0.00 44 1013.0
20260904133230 79 230 20.0 0.0 0.00 0.00 0.00 47 1013.0
20260904132525 81 230 20.0 0.0 0.00 0.00 0.00 44
20260904130241 81 240 20.0 0.0 0.00 0.00 0.00 44 1014.0
20260904123231 79 230 15.0 0.0 0.00 0.00 0.00 47 1014.0
20260904122235 79 230 16.0 0.0 0.00 0.00 0.00 47
20260904120235 79 220 17.0 0.0 0.00 0.00 0.00 47 1015.0
20260904113231 77 210 18.0 0.0 0.00 0.00 0.00 50 1015.0
20260904112236 75 210 18.0 0.0 0.00 0.00 0.00 53
20260904110233 75 220 18.0 0.0 0.00 0.00 0.00 53 1016.0
20260904103231 75 230 17.0 0.0 0.00 0.00 0.00 53 1016.0
20260904102651 73 230 18.0 0.0 0.00 0.00 0.00 56
20260904100234 75 230 18.0 0.0 0.00 0.00 0.00 53 1016.0
20260904093230 72 230 20.0 0.0 0.00 0.00 0.00 56 1017.0
20260904092251 73 230 18.0 0.0 0.00 0.00 0.00 53
20260904090235 73 230 18.0 0.0 0.00 0.00 0.00 53 1017.0
20260904083231 70 220 15.0 0.0 0.00 0.00 0.00 60 1018.0
20260904082236 70 220 16.0 0.0 0.00 0.00 0.00 60
20260904080234 70 210 15.0 0.0 0.00 0.00 0.00 60 1018.0
20260904073230 68 230 15.0 0.0 0.00 0.00 0.00 64 1018.0
20260904072436 68 230 16.0 0.0 0.00 0.00 0.00 64
20260904070234 66 230 14.0 0.0 0.00 0.00 0.00 68 1018.0
20260904063231 64 230 9.0 0.0 0.00 0.00 0.00 72 1018.0
20260904062235 64 230 12.0 0.0 0.00 0.00 0.00 67
20260904060233 64 230 9.0 0.0 0.00 0.00 0.00 72 1018.0
20260904053224 63 230 10.0 0.0 0.00 0.00 0.00 72 1017.0
20260904052218 64 230 12.0 0.0 0.00 0.00 0.00 67
20260904050232 63 230 12.0 0.0 0.00 0.00 0.00 72 1017.0
20260904043224 63 230 10.0 0.0 0.00 0.00 0.00 72 1017.0
20260904042619 64 230 9.0 0.0 0.00 0.00 0.00 67
20260904040238 63 230 9.0 0.0 0.00 0.00 0.00 72 1017.0
20260904033224 63 220 13.0 0.0 0.00 0.00 0.00 72 1017.0
20260904032218 63 230 12.0 0.0 0.00 0.00 0.00 72
20260904030235 61 230 8.0 0.0 0.00 0.00 0.00 77 1018.0
20260904023224 64 210 9.0 0.0 0.00 0.00 0.00 67 1017.0
20260904022220 64 220 12.0 0.0 0.00 0.00 0.00 63
20260904020235 63 220 10.0 0.0 0.00 0.00 0.00 72 1017.0
20260904013223 64 220 15.0 0.0 0.00 0.00 0.00 67 1018.0
20260904012536 66 220 14.0 0.0 0.00 0.00 0.00 63
20260904010236 64 220 13.0 0.0 0.00 0.00 0.00 67 1018.0
20260904003223 64 230 14.0 0.0 0.00 0.00 0.00 67 1018.0
20260904002235 66 230 14.0 0.0 0.00 0.00 0.00 63
20260904000235 64 220 13.0 0.0 0.00 0.00 0.00 67 1018.0
20260903233224 66 230 12.0 0.0 0.00 0.00 0.00 63 1018.0
20260903232235 66 220 14.0 0.0 0.00 0.00 0.00 59
20260903230237 64 220 13.0 0.0 0.00 0.00 0.00 67 1018.0